Orbital Elements
Epoch 2001 Nov. 27.0 TT = JDT 2452240.5
T 2001 Nov. 23.67657 TT Muraoka
q 2.6354065 (2000.0) P Q
n 0.17566287 Peri. 133.00087 +0.39450289 +0.91885830
a 3.1575439 Node 160.22960 -0.84994722 +0.36827026
e 0.1653619 Incl. 1.38549 -0.34922371 +0.14169132
P 5.61
From 186 observations 1979-2000, mean residual 0".64.
|